Home > Weather > Cedar Rapids > Past weeks

Flag for USA Weather for the Past 2 Weeks in Cedar Rapids, Iowa, USA

Now
43 °F

Fog.


Feels Like: 38 °F
Forecast: 42 / 57 °F
Wind: 9 mph from North

Location: Cedar Rapids Municipal Airport

Current Time: Apr 29, 2016 at 7:26:54 AM

Latest Report: Apr 29, 2016 at 6:52 AM


Visibility: 6 mi

Pressure: 30.10 "Hg

Humidity: 97%

Dew Point: 42 °F

Location of Cedar RapidsLocation

Historic Weather in Cedar Rapids — Graph

°F

Cedar Rapids Temperature Yesterday

Maximum temperature yesterday: 54 °F (at 2:52 PM)
Minimum temperature yesterday: 45 °F (at 12:52 AM)
Average temperature yesterday: 49 °F

High & Low Weather Summary for the Past Weeks

 TemperatureHumidityPressure
High80 °F (Apr 17, 2:52 PM)100% (Apr 19, 1:52 PM)30.33 "Hg (Apr 19, 1:52 PM)
Low39 °F (Apr 14, 6:52 AM)23% (Apr 14, 3:52 PM)29.60 "Hg (Apr 25, 2:52 AM)
Average58 °F74%29.98 "Hg
* Reported Apr 14 5:52 AM — Apr 29 5:52 AM, Cedar Rapids, Weather by CustomWeather, © 2016

Note: Actual official high and low records may vary slightly from our data, if they occured in-between our weather recording intervals... More about our weather records

Advertising

Cedar Rapids Weather History for the Previous 24 Hours

Scroll right to see more
 ConditionsComfort  
Time TempWeatherWind HumidityBarometerVisibility
5:52 AM
Fri, Apr 29
43 °FFog.3 mph100%30.11 "Hg6 mi
4:52 AM43 °FLow clouds.3 mph97%30.11 "Hg7 mi
3:52 AM43 °FFog.7 mph100%30.08 "Hg6 mi
2:52 AM44 °FFog.8 mph100%30.07 "Hg5 mi
1:52 AM44 °FFog.9 mph100%30.06 "Hg4 mi
12:52 AM45 °FFog.8 mph100%30.06 "Hg4 mi
12:03 AM46 °FFog.6 mph100%30.04 "Hg3 mi
10:52 PM
Thu, Apr 28
46 °FFog.7 mph100%30.03 "Hg4 mi
9:52 PM47 °FFog.8 mph100%30.01 "Hg4 mi
8:52 PM47 °FFog.8 mph100%29.99 "Hg5 mi
7:52 PM48 °FFog.10 mph96%29.97 "Hg5 mi
6:52 PM50 °FCloudy.12 mph96%29.95 "Hg7 mi
5:52 PM51 °FLight rain. Fog.6 mph100%29.92 "Hg5 mi
5:01 PM52 °FLight rain. Mostly cloudy.3 mph97%29.90 "Hg7 mi
3:52 PM52 °FMore clouds than sun.9 mph89%29.89 "Hg10 mi
2:52 PM54 °FOvercast.7 mph86%29.87 "Hg10 mi
1:54 PM52 °FCloudy.10 mph97%29.85 "Hg8 mi
12:52 PM50 °FRain. Fog.8 mph100%29.85 "Hg1 mi
11:52 AM49 °FLight rain. Fog.8 mph100%29.83 "Hg2 mi
10:52 AM49 °FLight rain. Fog.10 mph100%29.82 "Hg1 mi
9:52 AM48 °FFog.13 mph100%29.80 "Hg1 mi
8:54 AM48 °FFog.12 mph100%29.79 "Hg2 mi
7:52 AM47 °FFog.12 mph100%29.78 "Hg2 mi
Weather by CustomWeather, © 2016

See weather overviewHow to use our weather pages